Flag for France Weather past 2 weeks in Grenoble, France

Now
43 °F

Mostly cloudy.


Feels Like: 38 °F
Forecast: 48 / 59 °F
Wind: 8 mph from East

Location: Grenoble / St. Geoirs

Current Time: Mar 1, 2015 at 2:41:56 PM

Latest Report: Mar 1, 2015 at 2:00 PM


Visibility: N/A

Pressure: 30.01 "Hg

Humidity: 93%

Dew point: 41 °F

Location of GrenobleLocation

Historic Weather in Grenoble — Graph

°F

Grenoble temperature yesterday

Maximum temperature yesterday: 45 °F (at 3:00 PM)
Minimum temperature yesterday: 28 °F (at 9:00 PM)
Average temperature yesterday: 37 °F

Past Weeks' High & Low Weather Summary

 TemperatureHumidityPressure
High54 °F (Feb 19, 4:00 PM)100% (Feb 19, 4:00 AM)30.60 "Hg (Feb 19, 4:00 AM)
Low23 °F (Feb 19, 5:30 AM)43% (Feb 21, 1:30 AM)29.59 "Hg (Feb 21, 7:00 AM)
Average38 °F81%30.03 "Hg
* Reported Feb 14 1:00 PM — Mar 1 1:30 PM, Grenoble, Weather by CustomWeather, © 2015

Note: Actual official high and low records may vary slightly from our data, if they occured in-between our weather recording intervals... More about our weather records

Advertising

Grenoble weather history for previous 24 hours

 ConditionsComfort  
Time TempWeatherWind HumidityBarometerVisibility
1:30 PM
Sun, Mar 1
41 °FRain. Fog.9 mph93%30.04 "Hg3 mi
1:00 PM41 °FRain. Fog.7 mph93%30.04 "Hg3 mi
12:30 PM41 °FRain. Broken clouds.6 mph93%30.07 "HgN/A
12:00 PM41 °FLow clouds.7 mph93%30.04 "HgN/A
11:30 AM41 °FMore clouds than sun.7 mph93%30.04 "HgN/A
11:00 AM41 °FCloudy.7 mph93%30.04 "HgN/A
10:30 AM39 °FLight rain. Partly sunny.6 mph100%30.07 "HgN/A
10:00 AM39 °FLow clouds.5 mph93%30.04 "HgN/A
9:30 AM39 °FDrizzle. Fog.2 mph93%30.07 "Hg3 mi
9:00 AM37 °FLight rain. Fog.3 mph100%30.07 "Hg1 mi
8:30 AM37 °FLight rain. Fog.3 mph93%30.07 "Hg1 mi
8:00 AM37 °FDrizzle. Fog.No wind93%30.04 "Hg2 mi
7:30 AM37 °FLight rain. Fog.3 mph93%30.04 "Hg2 mi
7:00 AM37 °FLight rain. Overcast.2 mph93%30.01 "HgN/A
6:30 AM36 °FLight rain. Overcast.7 mph93%30.01 "HgN/A
6:00 AM36 °FLight rain. Mostly cloudy.6 mph93%30.04 "Hg4 mi
5:30 AM36 °FLight rain. Mostly cloudy.7 mph93%30.04 "HgN/A
5:00 AM36 °FDrizzle. Mostly cloudy.5 mph87%30.04 "HgN/A
4:30 AM37 °FPassing clouds.8 mph87%30.04 "HgN/A
4:00 AM37 °FLight rain. Partly cloudy.10 mph87%30.01 "HgN/A
3:30 AM37 °FLight rain. Partly cloudy.7 mph81%30.04 "HgN/A
3:00 AM36 °FLight rain. Overcast.7 mph87%30.04 "HgN/A
2:30 AM36 °FMostly cloudy.6 mph87%30.07 "HgN/A
2:00 AM34 °FMostly cloudy.7 mph93%30.04 "HgN/A
1:30 AM34 °FMostly cloudy.9 mph87%30.04 "HgN/A
1:00 AM34 °FClear.8 mph87%30.04 "HgN/A
12:30 AM32 °FClear.9 mph87%30.04 "HgN/A
12:00 AM32 °FClear.9 mph87%30.07 "HgN/A
11:30 PM
Sat, Feb 28
30 °FClear.9 mph93%30.07 "HgN/A
11:00 PM30 °FClear.7 mph86%30.09 "HgN/A
10:30 PM30 °FClear.5 mph86%30.09 "HgN/A
10:00 PM28 °FClear.6 mph86%30.09 "HgN/A
9:30 PM30 °FClear.8 mph93%30.09 "HgN/A
9:00 PM28 °FClear.6 mph86%30.09 "HgN/A
8:30 PM32 °FClear.5 mph87%30.09 "HgN/A
8:00 PM34 °FClear.3 mph87%30.09 "HgN/A
7:30 PM34 °FClear.5 mph81%30.09 "HgN/A
7:00 PM37 °FClear.No wind75%30.09 "HgN/A
6:30 PM39 °FClear.No wind75%30.09 "HgN/A
6:00 PM41 °FClear.No wind66%30.09 "HgN/A
5:30 PM41 °FPassing clouds.1 mph66%30.09 "HgN/A
5:00 PM45 °FPassing clouds.2 mph53%30.09 "HgN/A
4:30 PM45 °FPassing clouds.No wind57%30.09 "HgN/A
4:00 PM45 °FPartly sunny.2 mph53%30.09 "HgN/A
3:30 PM45 °FPartly sunny.3 mph53%30.09 "HgN/A
3:00 PM45 °FPartly sunny.3 mph57%30.09 "HgN/A
2:30 PM43 °FPartly sunny.3 mph61%30.09 "HgN/A
2:00 PM43 °FPartly sunny.6 mph61%30.09 "HgN/A
Weather by CustomWeather, © 2015

See weather overviewHow to use our weather pages